Time,TemperatureF,DewpointF,PressureIn,WindDirection,WindDirectionDegrees,WindSpeedMPH,WindSpeedGustMPH,Humidity,HourlyPrecipIn,Conditions,Clouds,dailyrainin,SoftwareType,DateUTC
2013-06-15 00:00:00,58.7,55.8,29.87,West,270,0.0,3.0,90,0.00,,,-99.99,WeatherLink 6.0.2,2013-06-15 04:00:00,
2013-06-15 00:05:00,58.6,56.0,29.87,WSW,255,1.0,1.0,91,0.00,,,0.00,Wunderground v.1.15,2013-06-15 04:05:00,
2013-06-15 00:10:00,58.6,56.0,29.87,WSW,254,1.0,1.0,91,0.00,,,0.00,Wunderground v.1.15,2013-06-15 04:10:00,
2013-06-15 00:20:00,58.7,56.1,29.87,West,262,0.0,0.0,91,0.00,,,0.00,Wunderground v.1.15,2013-06-15 04:20:00,
2013-06-15 00:25:00,58.8,56.2,29.87,WSW,256,1.0,1.0,91,0.00,,,0.00,Wunderground v.1.15,2013-06-15 04:25:00,
2013-06-15 00:30:00,58.9,56.3,29.87,WSW,256,1.0,2.0,91,0.00,,,0.00,Wunderground v.1.15,2013-06-15 04:30:00,
2013-06-15 00:35:00,58.9,56.3,29.88,WSW,255,0.0,2.0,91,0.00,,,0.00,Wunderground v.1.15,2013-06-15 04:35:00,
2013-06-15 00:40:00,58.8,56.2,29.87,WSW,250,1.0,1.0,91,0.00,,,0.00,Wunderground v.1.15,2013-06-15 04:40:00,
2013-06-15 00:50:00,58.8,56.2,29.88,WSW,248,0.0,0.0,91,0.00,,,0.00,Wunderground v.1.15,2013-06-15 04:50:00,
2013-06-15 00:55:00,58.8,56.2,29.88,West,271,0.0,1.0,91,0.00,,,0.00,Wunderground v.1.15,2013-06-15 04:55:00,
2013-06-15 01:00:00,58.8,56.2,29.87,WSW,247,0.0,4.0,91,0.00,,,-99.99,WeatherLink 6.0.2,2013-06-15 05:00:00,
2013-06-15 01:10:00,58.8,56.2,29.88,West,269,0.0,0.0,91,0.00,,,0.00,Wunderground v.1.15,2013-06-15 05:10:00,
2013-06-15 01:20:00,58.8,56.2,29.88,WSW,257,0.0,0.0,91,0.00,,,0.00,Wunderground v.1.15,2013-06-15 05:20:00,
2013-06-15 01:30:00,58.9,56.3,29.88,WSW,247,0.0,3.0,91,0.00,,,-99.99,WeatherLink 6.0.2,2013-06-15 05:30:00,
2013-06-15 01:40:00,59.1,56.5,29.88,WNW,301,0.0,0.0,91,0.00,,,0.00,Wunderground v.1.15,2013-06-15 05:40:00,
2013-06-15 01:50:00,59.3,56.4,29.88,West,259,0.0,1.0,90,0.00,,,0.00,Wunderground v.1.15,2013-06-15 05:50:00,
2013-06-15 02:00:00,59.3,56.4,29.88,West,270,0.0,4.0,90,0.00,,,-99.99,WeatherLink 6.0.2,2013-06-15 06:00:00,
2013-06-15 02:10:00,59.0,56.1,29.88,WSW,255,0.0,0.0,90,0.00,,,0.00,Wunderground v.1.15,2013-06-15 06:10:00,
2013-06-15 02:20:00,58.7,56.1,29.89,WSW,254,0.0,0.0,91,0.00,,,0.00,Wunderground v.1.15,2013-06-15 06:20:00,
2013-06-15 02:30:00,58.4,56.1,29.89,WSW,247,0.0,4.0,92,0.00,,,-99.99,WeatherLink 6.0.2,2013-06-15 06:30:00,
2013-06-15 02:40:00,58.4,56.1,29.89,WSW,247,1.0,1.0,92,0.00,,,0.00,Wunderground v.1.15,2013-06-15 06:40:00,
2013-06-15 02:50:00,58.8,56.2,29.89,West,260,1.0,1.0,91,0.00,,,0.00,Wunderground v.1.15,2013-06-15 06:50:00,
2013-06-15 03:00:00,60.4,56.5,29.90,WSW,247,1.0,5.0,87,0.00,,,-99.99,WeatherLink 6.0.2,2013-06-15 07:00:00,
2013-06-15 03:10:00,60.2,56.3,29.90,West,269,1.0,1.0,87,0.00,,,0.00,Wunderground v.1.15,2013-06-15 07:10:00,
2013-06-15 03:20:00,59.7,56.1,29.90,WSW,258,1.0,2.0,88,0.00,,,0.00,Wunderground v.1.15,2013-06-15 07:20:00,
2013-06-15 03:30:00,59.1,56.2,29.90,West,270,1.0,4.0,90,0.00,,,-99.99,WeatherLink 6.0.2,2013-06-15 07:30:00,
2013-06-15 03:40:00,58.5,55.9,29.90,WSW,250,1.0,1.0,91,0.00,,,0.00,Wunderground v.1.15,2013-06-15 07:40:00,
2013-06-15 03:50:00,58.3,55.7,29.90,WSW,242,0.0,0.0,91,0.00,,,0.00,Wunderground v.1.15,2013-06-15 07:50:00,
2013-06-15 04:00:00,58.1,55.8,29.90,WSW,242,0.0,0.0,92,0.00,,,0.00,Wunderground v.1.15,2013-06-15 08:00:00,
2013-06-15 04:10:00,58.4,55.5,29.90,WSW,243,0.0,0.0,90,0.00,,,0.00,Wunderground v.1.15,2013-06-15 08:10:00,
2013-06-15 04:20:00,58.1,55.5,29.90,WSW,243,1.0,1.0,91,0.00,,,0.00,Wunderground v.1.15,2013-06-15 08:20:00,
2013-06-15 04:30:00,57.8,55.5,29.90,WSW,243,1.0,1.0,92,0.00,,,0.00,Wunderground v.1.15,2013-06-15 08:30:00,
2013-06-15 04:40:00,57.4,55.1,29.90,WSW,243,0.0,0.0,92,0.00,,,0.00,Wunderground v.1.15,2013-06-15 08:40:00,
2013-06-15 04:50:00,57.4,55.4,29.91,West,261,0.0,1.0,93,0.00,,,0.00,Wunderground v.1.15,2013-06-15 08:50:00,
2013-06-15 05:00:00,57.2,54.9,29.91,West,270,0.0,3.0,92,0.00,,,-99.99,WeatherLink 6.0.2,2013-06-15 09:00:00,
2013-06-15 05:10:00,58.6,55.7,29.92,NNE,15,2.0,2.0,90,0.00,,,0.00,Wunderground v.1.15,2013-06-15 09:10:00,
2013-06-15 05:20:00,60.4,55.9,29.92,NE,45,1.0,1.0,85,0.00,,,0.00,Wunderground v.1.15,2013-06-15 09:20:00,
2013-06-15 05:30:00,59.7,55.5,29.92,West,278,1.0,1.0,86,0.00,,,0.00,Wunderground v.1.15,2013-06-15 09:30:00,
2013-06-15 05:40:00,59.4,55.2,29.92,WSW,240,1.0,1.0,86,0.00,,,0.00,Wunderground v.1.15,2013-06-15 09:40:00,
2013-06-15 05:50:00,58.5,55.3,29.93,WSW,244,1.0,1.0,89,0.00,,,0.00,Wunderground v.1.15,2013-06-15 09:50:00,
2013-06-15 06:00:00,58.0,55.1,29.93,WSW,247,1.0,5.0,90,0.00,,,-99.99,WeatherLink 6.0.2,2013-06-15 10:00:00,
2013-06-15 06:10:00,58.7,55.5,29.93,WSW,257,2.0,5.0,89,0.00,,,0.00,Wunderground v.1.15,2013-06-15 10:10:00,
2013-06-15 06:20:00,61.4,56.2,29.93,West,267,4.0,6.0,83,0.00,,,0.00,Wunderground v.1.15,2013-06-15 10:20:00,
2013-06-15 06:30:00,62.1,56.2,29.93,WSW,252,4.0,8.0,81,0.00,,,0.00,Wunderground v.1.15,2013-06-15 10:30:00,
2013-06-15 06:40:00,62.4,56.5,29.93,WSW,240,2.0,2.0,81,0.00,,,0.00,Wunderground v.1.15,2013-06-15 10:40:00,
2013-06-15 06:50:00,62.9,56.6,29.94,West,259,2.0,3.0,80,0.00,,,0.00,Wunderground v.1.15,2013-06-15 10:50:00,
2013-06-15 07:00:00,63.4,57.1,29.94,SW,235,2.0,2.0,80,0.00,,,0.00,Wunderground v.1.15,2013-06-15 11:00:00,
2013-06-15 07:10:00,63.3,57.0,29.95,SSW,211,2.0,3.0,80,0.00,,,0.00,Wunderground v.1.15,2013-06-15 11:10:00,
2013-06-15 07:20:00,63.7,57.4,29.95,West,261,2.0,4.0,80,0.00,,,0.00,Wunderground v.1.15,2013-06-15 11:20:00,
2013-06-15 07:30:00,64.3,57.6,29.96,WSW,257,2.0,2.0,79,0.00,,,0.00,Wunderground v.1.15,2013-06-15 11:30:00,
2013-06-15 07:40:00,64.3,57.3,29.95,SW,231,1.0,1.0,78,0.00,,,0.00,Wunderground v.1.15,2013-06-15 11:40:00,
2013-06-15 07:50:00,64.8,57.4,29.95,WNW,288,2.0,7.0,77,0.00,,,0.00,Wunderground v.1.15,2013-06-15 11:50:00,
2013-06-15 08:00:00,65.3,57.2,29.96,SW,232,5.0,6.0,75,0.00,,,0.00,Wunderground v.1.15,2013-06-15 12:00:00,
2013-06-15 08:10:00,65.8,57.3,29.96,West,276,4.0,5.0,74,0.00,,,0.00,Wunderground v.1.15,2013-06-15 12:10:00,
2013-06-15 08:20:00,66.1,57.6,29.97,West,278,5.0,5.0,74,0.00,,,0.00,Wunderground v.1.15,2013-06-15 12:20:00,
2013-06-15 08:30:00,66.4,57.9,29.97,West,270,4.0,8.0,74,0.00,,,-99.99,WeatherLink 6.0.2,2013-06-15 12:30:00,
2013-06-15 08:40:00,67.0,57.7,29.98,WSW,244,3.0,3.0,72,0.00,,,0.00,Wunderground v.1.15,2013-06-15 12:40:00,
2013-06-15 08:50:00,67.5,56.6,29.99,WSW,244,4.0,4.0,68,0.00,,,0.00,Wunderground v.1.15,2013-06-15 12:50:00,
2013-06-15 09:00:00,68.2,57.2,29.99,South,188,3.0,3.0,68,0.00,,,0.00,Wunderground v.1.15,2013-06-15 13:00:00,
2013-06-15 09:10:00,68.4,56.6,29.99,West,267,3.0,3.0,66,0.00,,,0.00,Wunderground v.1.15,2013-06-15 13:10:00,
2013-06-15 09:20:00,68.9,57.5,29.99,SW,235,4.0,4.0,67,0.00,,,0.00,Wunderground v.1.15,2013-06-15 13:20:00,
2013-06-15 09:30:00,69.0,57.6,29.99,WNW,283,2.0,2.0,67,0.00,,,0.00,Wunderground v.1.15,2013-06-15 13:30:00,
2013-06-15 09:40:00,69.8,57.5,30.00,WSW,237,2.0,4.0,65,0.00,,,0.00,Wunderground v.1.15,2013-06-15 13:40:00,
2013-06-15 09:50:00,70.8,57.6,29.99,SSW,211,2.0,2.0,63,0.00,,,0.00,Wunderground v.1.15,2013-06-15 13:50:00,
2013-06-15 10:00:00,71.1,58.3,29.98,WSW,247,2.0,7.0,64,0.00,,,-99.99,WeatherLink 6.0.2,2013-06-15 14:00:00,
2013-06-15 10:10:00,71.7,54.2,29.98,SW,217,2.0,3.0,54,0.00,,,0.00,Wunderground v.1.15,2013-06-15 14:10:00,
2013-06-15 10:20:00,71.8,55.3,29.97,SW,214,3.0,3.0,56,0.00,,,0.00,Wunderground v.1.15,2013-06-15 14:20:00,
2013-06-15 10:30:00,72.4,54.8,29.97,WSW,242,2.0,2.0,54,0.00,,,0.00,Wunderground v.1.15,2013-06-15 14:30:00,
2013-06-15 10:40:00,73.3,54.1,29.97,SSW,192,3.0,5.0,51,0.00,,,0.00,Wunderground v.1.15,2013-06-15 14:40:00,
2013-06-15 10:50:00,73.2,52.3,29.97,NNE,29,3.0,3.0,48,0.00,,,0.00,Wunderground v.1.15,2013-06-15 14:50:00,
2013-06-15 11:00:00,73.3,52.4,29.98,WSW,247,3.0,14.0,48,0.00,,,-99.99,WeatherLink 6.0.2,2013-06-15 15:00:00,
2013-06-15 11:10:00,74.1,53.2,29.98,SW,236,2.0,2.0,48,0.00,,,0.00,Wunderground v.1.15,2013-06-15 15:10:00,
2013-06-15 11:20:00,74.9,52.7,29.98,SW,216,2.0,3.0,46,0.00,,,0.00,Wunderground v.1.15,2013-06-15 15:20:00,
2013-06-15 11:30:00,75.0,54.0,29.98,SW,225,2.0,8.0,48,0.00,,,-99.99,WeatherLink 6.0.2,2013-06-15 15:30:00,
2013-06-15 11:40:00,76.3,52.2,29.98,North,5,2.0,2.0,43,0.00,,,0.00,Wunderground v.1.15,2013-06-15 15:40:00,
2013-06-15 11:50:00,75.9,51.8,29.98,SW,236,3.0,3.0,43,0.00,,,0.00,Wunderground v.1.15,2013-06-15 15:50:00,
2013-06-15 12:00:00,76.0,52.5,29.98,West,265,3.0,5.0,44,0.00,,,0.00,Wunderground v.1.15,2013-06-15 16:00:00,
2013-06-15 12:10:00,76.4,51.0,29.97,WNW,300,3.0,4.0,41,0.00,,,0.00,Wunderground v.1.15,2013-06-15 16:10:00,
2013-06-15 12:20:00,76.7,51.2,29.97,North,9,4.0,8.0,41,0.00,,,0.00,Wunderground v.1.15,2013-06-15 16:20:00,
2013-06-15 12:30:00,76.6,51.8,29.97,North,0,3.0,10.0,42,0.00,,,-99.99,WeatherLink 6.0.2,2013-06-15 16:30:00,
2013-06-15 12:40:00,76.7,51.9,29.96,WSW,248,3.0,4.0,42,0.00,,,0.00,Wunderground v.1.15,2013-06-15 16:40:00,
2013-06-15 12:50:00,77.8,50.9,29.96,West,263,4.0,4.0,39,0.00,,,0.00,Wunderground v.1.15,2013-06-15 16:50:00,
2013-06-15 13:00:00,78.1,52.5,29.96,NE,43,3.0,3.0,41,0.00,,,0.00,Wunderground v.1.15,2013-06-15 17:00:00,
2013-06-15 13:10:00,78.3,52.7,29.96,SSW,207,3.0,3.0,41,0.00,,,0.00,Wunderground v.1.15,2013-06-15 17:10:00,
2013-06-15 13:20:00,77.5,51.9,29.96,West,281,5.0,5.0,41,0.00,,,0.00,Wunderground v.1.15,2013-06-15 17:20:00,
2013-06-15 13:30:00,77.2,50.3,29.96,SW,225,4.0,13.0,39,0.00,,,-99.99,WeatherLink 6.0.2,2013-06-15 17:30:00,
2013-06-15 13:40:00,78.0,51.7,29.96,SW,230,3.0,3.0,40,0.00,,,0.00,Wunderground v.1.15,2013-06-15 17:40:00,
2013-06-15 13:50:00,78.1,51.8,29.96,NNE,12,3.0,5.0,40,0.00,,,0.00,Wunderground v.1.15,2013-06-15 17:50:00,
2013-06-15 14:00:00,78.3,52.0,29.96,North,0,3.0,14.0,40,0.00,,,-99.99,WeatherLink 6.0.2,2013-06-15 18:00:00,
2013-06-15 14:10:00,79.1,52.0,29.95,SSW,206,4.0,4.0,39,0.00,,,0.00,Wunderground v.1.15,2013-06-15 18:10:00,
2013-06-15 14:20:00,78.5,52.2,29.94,SSW,198,4.0,7.0,40,0.00,,,0.00,Wunderground v.1.15,2013-06-15 18:20:00,
2013-06-15 14:30:00,78.3,52.7,29.94,SW,216,4.0,4.0,41,0.00,,,0.00,Wunderground v.1.15,2013-06-15 18:30:00,
2013-06-15 14:40:00,78.4,52.7,29.94,West,264,3.0,3.0,41,0.00,,,0.00,Wunderground v.1.15,2013-06-15 18:40:00,
2013-06-15 14:50:00,79.3,52.9,29.93,East,99,2.0,4.0,40,0.00,,,0.00,Wunderground v.1.15,2013-06-15 18:50:00,
2013-06-15 15:00:00,78.8,51.7,29.93,SW,217,3.0,3.0,39,0.00,,,0.00,Wunderground v.1.15,2013-06-15 19:00:00,
2013-06-15 15:10:00,78.5,52.2,29.93,WSW,241,3.0,3.0,40,0.00,,,0.00,Wunderground v.1.15,2013-06-15 19:10:00,
2013-06-15 15:20:00,78.8,53.1,29.93,SW,226,3.0,3.0,41,0.00,,,0.00,Wunderground v.1.15,2013-06-15 19:20:00,
2013-06-15 15:30:00,78.5,53.5,29.93,SW,225,3.0,15.0,42,0.00,,,-99.99,WeatherLink 6.0.2,2013-06-15 19:30:00,
2013-06-15 15:40:00,78.5,52.2,29.91,West,271,3.0,3.0,40,0.00,,,0.00,Wunderground v.1.15,2013-06-15 19:40:00,
2013-06-15 15:50:00,79.1,53.4,29.91,WNW,286,2.0,3.0,41,0.00,,,0.00,Wunderground v.1.15,2013-06-15 19:50:00,
2013-06-15 16:00:00,79.3,52.9,29.91,WNW,292,3.0,10.0,40,0.00,,,-99.99,WeatherLink 6.0.2,2013-06-15 20:00:00,
2013-06-15 16:10:00,79.1,51.3,29.91,NW,304,3.0,3.0,38,0.00,,,0.00,Wunderground v.1.15,2013-06-15 20:10:00,
2013-06-15 16:20:00,79.6,52.5,29.91,WSW,257,4.0,4.0,39,0.00,,,0.00,Wunderground v.1.15,2013-06-15 20:20:00,
2013-06-15 16:30:00,80.2,51.6,29.91,WSW,247,3.0,9.0,37,0.00,,,-99.99,WeatherLink 6.0.2,2013-06-15 20:30:00,
2013-06-15 16:40:00,80.2,51.6,29.91,SW,223,3.0,3.0,37,0.00,,,0.00,Wunderground v.1.15,2013-06-15 20:40:00,
2013-06-15 16:50:00,79.8,49.7,29.92,SSW,206,2.0,2.0,35,0.00,,,0.00,Wunderground v.1.15,2013-06-15 20:50:00,
2013-06-15 17:00:00,80.2,50.8,29.91,WNW,292,2.0,10.0,36,0.00,,,-99.99,WeatherLink 6.0.2,2013-06-15 21:00:00,
2013-06-15 17:10:00,80.5,51.8,29.92,WNW,298,2.0,2.0,37,0.00,,,0.00,Wunderground v.1.15,2013-06-15 21:10:00,
2013-06-15 17:20:00,80.9,52.2,29.92,NW,312,1.0,1.0,37,0.00,,,0.00,Wunderground v.1.15,2013-06-15 21:20:00,
2013-06-15 17:30:00,80.6,51.2,29.91,North,0,2.0,8.0,36,0.00,,,-99.99,WeatherLink 6.0.2,2013-06-15 21:30:00,
2013-06-15 17:40:00,80.4,53.9,29.92,WNW,285,2.0,2.0,40,0.00,,,0.00,Wunderground v.1.15,2013-06-15 21:40:00,
2013-06-15 17:50:00,80.6,51.9,29.92,South,169,2.0,2.0,37,0.00,,,0.00,Wunderground v.1.15,2013-06-15 21:50:00,
2013-06-15 18:00:00,80.5,53.3,29.92,SW,234,2.0,4.0,39,0.00,,,0.00,Wunderground v.1.15,2013-06-15 22:00:00,
2013-06-15 18:10:00,80.0,52.8,29.92,WNW,285,3.0,3.0,39,0.00,,,0.00,Wunderground v.1.15,2013-06-15 22:10:00,
2013-06-15 18:20:00,80.2,52.3,29.92,West,267,1.0,1.0,38,0.00,,,0.00,Wunderground v.1.15,2013-06-15 22:20:00,
2013-06-15 18:30:00,80.5,52.6,29.92,SSE,157,1.0,1.0,38,0.00,,,0.00,Wunderground v.1.15,2013-06-15 22:30:00,
2013-06-15 18:40:00,80.1,54.9,29.92,SW,227,2.0,2.0,42,0.00,,,0.00,Wunderground v.1.15,2013-06-15 22:40:00,
2013-06-15 18:50:00,79.1,56.5,29.92,SW,219,1.0,1.0,46,0.00,,,0.00,Wunderground v.1.15,2013-06-15 22:50:00,
2013-06-15 19:00:00,78.5,55.4,29.91,SW,225,1.0,9.0,45,0.00,,,-99.99,WeatherLink 6.0.2,2013-06-15 23:00:00,
2013-06-15 19:10:00,76.9,54.5,29.91,SW,231,1.0,1.0,46,0.00,,,0.00,Wunderground v.1.15,2013-06-15 23:10:00,
2013-06-15 19:20:00,75.7,56.3,29.92,WSW,240,1.0,1.0,51,0.00,,,0.00,Wunderground v.1.15,2013-06-15 23:20:00,
2013-06-15 19:30:00,74.1,56.9,29.92,WSW,242,1.0,1.0,55,0.00,,,0.00,Wunderground v.1.15,2013-06-15 23:30:00,
2013-06-15 19:40:00,73.2,56.6,29.92,SSE,166,0.0,0.0,56,0.00,,,0.00,Wunderground v.1.15,2013-06-15 23:40:00,
2013-06-15 19:50:00,72.4,55.8,29.92,WSW,242,1.0,1.0,56,0.00,,,0.00,Wunderground v.1.15,2013-06-15 23:50:00,
2013-06-15 20:00:00,71.9,56.8,29.93,WSW,244,0.0,0.0,59,0.00,,,0.00,Wunderground v.1.15,2013-06-16 00:00:00,
2013-06-15 20:10:00,71.3,57.2,29.93,WSW,245,0.0,0.0,61,0.00,,,0.00,Wunderground v.1.15,2013-06-16 00:10:00,
2013-06-15 20:20:00,70.8,58.9,29.93,WSW,242,1.0,1.0,66,0.00,,,0.00,Wunderground v.1.15,2013-06-16 00:20:00,
2013-06-15 20:30:00,70.2,58.3,29.93,WSW,247,0.0,3.0,66,0.00,,,-99.99,WeatherLink 6.0.2,2013-06-16 00:30:00,
2013-06-15 20:40:00,69.4,58.0,29.93,WSW,244,0.0,0.0,67,0.00,,,0.00,Wunderground v.1.15,2013-06-16 00:40:00,
2013-06-15 20:50:00,68.6,58.0,29.94,South,169,0.0,0.0,69,0.00,,,0.00,Wunderground v.1.15,2013-06-16 00:50:00,
2013-06-15 21:00:00,68.0,57.8,29.94,SSE,157,0.0,2.0,70,0.00,,,-99.99,WeatherLink 6.0.2,2013-06-16 01:00:00,
2013-06-15 21:10:00,67.4,57.7,29.94,South,175,0.0,0.0,71,0.00,,,0.00,Wunderground v.1.15,2013-06-16 01:10:00,
2013-06-15 21:20:00,66.8,57.9,29.94,South,175,0.0,0.0,73,0.00,,,0.00,Wunderground v.1.15,2013-06-16 01:20:00,
2013-06-15 21:30:00,66.3,57.8,29.94,SSE,165,0.0,0.0,74,0.00,,,0.00,Wunderground v.1.15,2013-06-16 01:30:00,
2013-06-15 21:40:00,65.8,57.7,29.95,SSE,165,0.0,0.0,75,0.00,,,0.00,Wunderground v.1.15,2013-06-16 01:40:00,
2013-06-15 21:50:00,65.2,57.1,29.95,South,174,0.0,0.0,75,0.00,,,0.00,Wunderground v.1.15,2013-06-16 01:50:00,
2013-06-15 22:00:00,64.8,57.4,29.95,South,174,0.0,0.0,77,0.00,,,0.00,Wunderground v.1.15,2013-06-16 02:00:00,
2013-06-15 22:10:00,64.4,57.4,29.96,WSW,241,0.0,0.0,78,0.00,,,0.00,Wunderground v.1.15,2013-06-16 02:10:00,
2013-06-15 22:20:00,63.9,56.9,29.96,WSW,241,0.0,0.0,78,0.00,,,0.00,Wunderground v.1.15,2013-06-16 02:20:00,
2013-06-15 22:30:00,63.5,56.9,29.96,WSW,247,0.0,2.0,79,0.00,,,-99.99,WeatherLink 6.0.2,2013-06-16 02:30:00,
2013-06-15 22:40:00,63.2,56.6,29.96,WSW,248,0.0,0.0,79,0.00,,,0.00,Wunderground v.1.15,2013-06-16 02:40:00,
2013-06-15 22:50:00,62.9,56.3,29.96,NNE,29,0.0,0.0,79,0.00,,,0.00,Wunderground v.1.15,2013-06-16 02:50:00,
2013-06-15 23:00:00,62.6,56.3,29.96,WSW,247,0.0,2.0,80,0.00,,,-99.99,WeatherLink 6.0.2,2013-06-16 03:00:00,
2013-06-15 23:10:00,62.3,56.4,29.96,NNE,29,0.0,0.0,81,0.00,,,0.00,Wunderground v.1.15,2013-06-16 03:10:00,
2013-06-15 23:20:00,62.0,56.4,29.97,West,266,0.0,0.0,82,0.00,,,0.00,Wunderground v.1.15,2013-06-16 03:20:00,
2013-06-15 23:30:00,61.6,56.4,29.97,West,270,0.0,4.0,83,0.00,,,-99.99,WeatherLink 6.0.2,2013-06-16 03:30:00,
2013-06-15 23:40:00,61.3,56.1,29.97,WSW,256,0.0,0.0,83,0.00,,,0.00,Wunderground v.1.15,2013-06-16 03:40:00,
2013-06-15 23:50:00,60.9,56.0,29.97,WSW,254,0.0,0.0,84,0.00,,,0.00,Wunderground v.1.15,2013-06-16 03:50:00,